Total_Precipitation_Accumulation
0.04 0.10 0.12 0.11 0.14 0.18 0.17 0.27 0.38 0.39 0.36 0.40 0.53 0.73 0.96 1.04 1.26 1.52 1.61 1.69 1.81 1.89 2.24 2.69 3.40 4.43 4.96 5.61 5.50 5.08 4.79 4.57 4.47 4.40 4.40 4.43 4.49 4.63 4.73 4.63 4.40 4.35 4.26 4.37
0.07 0.09 0.08 0.07 0.10 0.12 0.15 0.23 0.31 0.41 0.45 0.48 0.67 0.85 1.12 1.24 1.38 1.49 1.48 1.65 1.68 1.83 2.41 3.04 3.58 4.20 4.61 4.72 4.91 5.18 5.17 5.08 4.78 4.67 4.95 5.37 5.61 5.48 5.49 5.41 5.34 5.14 5.00 4.98
0.09 0.07 0.05 0.06 0.09 0.09 0.13 0.21 0.27 0.39 0.52 0.66 0.92 1.26 1.36 1.39 1.57 1.57 1.49 1.57 1.63 1.79 2.17 2.82 3.36 3.80 4.34 4.67 4.74 5.03 5.10 5.25 5.46 5.59 5.73 6.10 6.36 6.18 5.94 5.57 5.39 5.15 4.87 4.80
0.05 0.04 0.04 0.08 0.09 0.09 0.13 0.14 0.21 0.30 0.51 0.80 1.01 1.57 1.68 1.60 1.70 1.72 1.76 1.77 1.78 1.91 2.09 2.46 2.90 3.22 3.64 3.98 4.31 4.69 4.86 5.04 5.57 6.29 6.56 6.59 6.66 6.49 6.14 5.80 5.47 5.08 4.74 4.49
0.05 0.05 0.07 0.08 0.08 0.07 0.09 0.11 0.17 0.26 0.44 0.80 0.96 1.33 1.88 1.83 1.84 1.81 1.86 1.89 1.90 1.92 2.02 2.20 2.32 2.70 3.24 3.49 3.74 4.23 4.64 5.09 5.70 6.23 6.58 6.79 6.67 6.42 6.11 5.64 5.29 4.93 4.55 4.17
0.05 0.06 0.07 0.08 0.08 0.07 0.08 0.13 0.23 0.32 0.55 1.01 0.88 1.10 1.88 2.05 1.95 1.80 1.80 1.89 1.89 1.82 1.87 1.98 2.19 2.43 2.75 3.08 3.35 3.66 4.23 4.90 5.32 5.67 6.01 6.18 6.26 6.14 5.80 5.31 4.99 4.66 4.29 3.94
0.10 0.10 0.07 0.08 0.09 0.10 0.16 0.40 0.80 0.99 1.12 1.12 0.76 1.14 1.93 2.07 2.00 1.95 1.97 2.17 2.02 1.70 1.75 2.02 2.18 2.40 2.63 2.92 3.28 3.58 3.98 4.54 4.84 4.94 5.10 5.38 5.56 5.56 5.42 5.17 4.82 4.39 3.89 3.42
0.21 0.19 0.10 0.09 0.11 0.14 0.17 0.39 0.88 1.16 1.18 1.14 1.07 1.71 2.17 2.08 2.01 2.04 2.02 2.05 1.98 1.84 1.96 2.06 2.12 2.31 2.62 2.81 2.96 3.33 3.58 4.10 4.38 4.25 4.36 4.65 4.88 4.82 4.67 4.44 3.99 3.56 3.20 2.89
0.27 0.26 0.12 0.10 0.11 0.12 0.18 0.28 0.40 0.71 0.86 1.19 1.63 2.18 2.54 2.49 2.37 2.23 2.11 1.92 1.88 1.87 2.03 2.11 2.02 2.12 2.35 2.60 2.76 2.93 3.11 3.49 3.76 3.71 3.75 3.79 3.81 3.80 3.70 3.49 3.16 2.79 2.54 2.31
0.19 0.24 0.15 0.12 0.15 0.18 0.21 0.26 0.41 0.80 1.16 1.51 1.83 2.49 3.11 2.95 2.62 2.33 2.16 1.90 1.86 1.77 1.82 1.90 1.97 2.05 1.98 2.05 2.36 2.61 2.69 2.85 2.98 2.97 2.97 2.96 3.02 3.08 2.98 2.69 2.37 2.21 2.13 1.99
0.17 0.28 0.24 0.22 0.25 0.28 0.30 0.35 0.42 0.65 0.83 1.31 1.85 2.50 2.61 2.69 2.50 2.26 2.05 1.84 1.70 1.62 1.69 1.80 1.90 1.95 1.82 1.74 1.86 2.10 2.32 2.42 2.54 2.63 2.65 2.53 2.46 2.37 2.30 2.16 1.94 1.90 1.87 1.76
0.24 0.36 0.42 0.34 0.27 0.25 0.30 0.36 0.46 0.80 0.86 1.00 1.58 2.40 2.33 2.57 2.59 2.47 2.23 2.00 1.93 1.82 1.83 1.87 2.02 1.94 1.81 1.83 1.84 1.87 2.00 2.13 2.21 2.24 2.35 2.37 2.26 2.05 1.95 1.86 1.77 1.68 1.62 1.58
0.31 0.52 0.77 0.85 0.66 0.43 0.39 0.40 0.45 0.52 0.73 1.05 1.68 2.56 2.46 2.46 2.49 2.41 2.23 2.19 2.15 2.12 2.14 2.09 2.08 1.97 1.87 1.85 1.76 1.67 1.73 1.85 1.93 1.99 2.03 2.00 1.93 1.82 1.72 1.69 1.69 1.57 1.50 1.42
0.33 0.56 0.88 1.27 1.10 0.73 0.59 0.50 0.51 0.60 0.93 1.18 1.57 2.11 2.42 2.36 2.42 2.51 2.44 2.24 2.23 2.31 2.31 2.23 2.16 2.11 2.02 1.93 1.77 1.65 1.63 1.60 1.56 1.65 1.77 1.78 1.74 1.69 1.61 1.50 1.48 1.45 1.42 1.36
0.44 0.64 0.62 0.62 0.60 0.61 0.59 0.55 0.56 0.66 0.77 1.20 1.56 2.01 2.37 2.28 2.42 2.68 2.67 2.50 2.36 2.40 2.40 2.33 2.35 2.26 2.23 2.19 2.02 1.88 1.75 1.64 1.57 1.55 1.51 1.59 1.69 1.68 1.61 1.54 1.49 1.44 1.36 1.26
0.51 0.65 0.65 0.60 0.53 0.57 0.63 0.67 0.62 0.64 0.81 1.18 1.57 2.09 2.19 2.19 2.29 2.42 2.56 2.48 2.37 2.37 2.43 2.48 2.59 2.54 2.49 2.44 2.24 2.07 1.92 1.70 1.57 1.55 1.52 1.55 1.61 1.60 1.54 1.50 1.45 1.40 1.35 1.33
0.54 0.70 0.86 0.76 0.55 0.81 1.18 1.02 0.89 0.88 0.99 1.29 1.71 1.93 1.87 1.99 2.25 2.38 2.45 2.54 2.52 2.60 2.72 2.76 2.71 2.69 2.61 2.54 2.53 2.45 2.19 1.93 1.81 1.69 1.58 1.56 1.53 1.48 1.44 1.32 1.30 1.37 1.38 1.35
0.57 0.76 0.89 0.94 1.03 1.62 1.52 1.02 0.95 1.10 1.27 1.36 1.48 1.53 1.71 1.94 2.14 2.29 2.47 2.66 2.69 2.67 2.61 2.68 2.63 2.64 2.58 2.49 2.45 2.41 2.31 2.10 1.84 1.72 1.57 1.47 1.47 1.44 1.44 1.40 1.36 1.40 1.42 1.35
0.39 0.69 0.99 1.15 1.52 1.65 1.54 1.10 1.09 1.32 1.71 1.53 1.56 1.55 1.67 1.78 2.00 2.40 2.44 2.52 2.71 2.56 2.46 2.53 2.62 2.65 2.63 2.52 2.33 2.21 2.16 2.07 1.95 1.74 1.52 1.39 1.39 1.36 1.36 1.37 1.37 1.39 1.39 1.33
0.43 0.62 1.10 1.40 1.79 2.02 1.81 1.06 0.90 1.37 2.42 1.82 1.69 1.71 1.70 1.81 2.36 2.51 2.22 2.14 2.24 2.31 2.41 2.52 2.63 2.70 2.68 2.61 2.28 2.12 2.00 1.87 1.72 1.52 1.38 1.32 1.32 1.27 1.24 1.29 1.34 1.36 1.37 1.32
0.91 0.99 1.22 1.55 2.03 2.13 1.33 0.85 0.98 1.98 2.49 1.91 1.78 1.74 1.78 2.01 2.20 1.99 1.83 1.91 2.08 2.25 2.38 2.47 2.50 2.52 2.47 2.45 2.21 2.08 1.88 1.71 1.44 1.25 1.22 1.25 1.23 1.17 1.12 1.17 1.22 1.29 1.27 1.28
1.28 1.47 1.58 1.75 2.21 2.36 1.18 0.98 1.41 1.77 1.48 1.41 1.43 1.41 1.46 1.57 1.64 1.69 1.73 1.81 1.90 2.05 2.22 2.31 2.35 2.32 2.21 2.11 2.03 1.92 1.74 1.47 1.27 1.15 1.12 1.19 1.23 1.04 0.93 1.04 1.05 1.09 1.25 1.22
1.29 1.46 1.71 1.99 2.35 1.96 1.29 1.25 1.24 1.26 1.26 1.21 1.27 1.24 1.26 1.34 1.40 1.54 1.73 1.82 1.83 1.80 1.97 2.03 1.93 1.83 1.83 1.78 1.74 1.67 1.50 1.29 1.17 1.15 1.19 1.19 1.17 1.10 1.05 1.07 1.04 1.07 1.17 1.18
1.38 1.18 1.47 1.76 1.86 1.54 1.24 1.14 1.12 1.02 1.00 1.04 1.17 1.17 1.12 1.11 1.08 1.21 1.37 1.53 1.63 1.61 1.61 1.68 1.65 1.59 1.55 1.49 1.42 1.35 1.22 1.19 1.18 1.18 1.21 1.25 1.21 1.10 1.06 1.12 1.03 1.02 1.02 1.06
1.45 1.40 1.63 1.85 1.81 1.58 1.37 1.18 1.06 1.02 0.99 1.04 1.10 1.03 0.94 0.90 0.89 0.94 1.10 1.21 1.30 1.37 1.33 1.35 1.45 1.47 1.36 1.26 1.21 1.15 1.06 1.06 1.19 1.24 1.19 1.18 1.09 1.07 1.10 1.04 0.91 0.85 0.81 0.85
1.33 1.53 1.85 2.04 1.74 1.65 1.49 1.15 0.96 0.98 0.98 0.94 0.92 0.85 0.83 0.80 0.78 0.82 1.00 1.12 1.17 1.18 1.19 1.26 1.32 1.29 1.24 1.17 1.09 1.03 0.96 0.98 1.11 1.19 1.16 1.08 1.01 0.99 0.96 0.99 0.92 0.83 0.77 0.76